Location: Çayiçi
(36.4667°N, 30.2333°E)
Time: 01:39:07
(UTC+00:00)

Okean 1-7 Rocket - Pass Details

Date: 09 February 2023
Orbit: 614 x 648 km, 82.5° (Epoch: 01 April)

Event Time Altitude Azimuth Distance (km) Brightness Sun altitude
Rises 16:37:18 0° 187° (S) 2,884 7.2 -13.4°
Reaches altitude 10° 16:39:30 10° 187° (S) 1,987 6.4 -13.8°
Maximum altitude 16:43:55 85° 275° (W) 636 3.6 -14.7°
Drops below altitude 10° 16:48:25 10° 6° (N) 2,023 6.1 -15.6°
Sets 16:50:40 0° 7° (N) 2,941 6.9 -16.0°
